Location: Kumla
(59.1265°N, 15.1401°E)
Time: 16:53:36
(UTC+01:00)

Transit 2A - Pass Details

Date: 06 December 2023
Orbit: 600 x 953 km, 66.7° (Epoch: 27 February)

Event Time Altitude Azimuth Distance (km) Brightness Sun altitude
Rises 15:23:40 0° 198° (SSW) 3,138 10.4 -2.6°
Reaches altitude 10° 15:26:15 10° 190° (S) 2,163 9.2 -2.8°
Maximum altitude 15:30:40 36° 124° (SE) 1,046 6.6 -3.3°
Drops below altitude 10° 15:34:49 10° 58° (ENE) 2,017 7.5 -3.7°
Enters shadow 15:36:00 - 53° (NE) 2,460 7.9 -3.8°
Sets 15:37:08 0° 50° (NE) 2,898 - -3.9°
